Hourly Data Report for October 03, 2017

All times are specified in Local Standard Time (LST). Add 1 hour to adjust for Daylight Saving Time where and when it is observed.

PANGNIRTUNG
NUNAVUT

66°08'36.300" N
65°42'40.500" W
22.60 m
2403049
71826
WXP

Download Data

Hourly Data (October 2017)
Hourly Data Report for October 3, 2017
Temp Definition
°C
Dew Point Temp Definition
°C
Rel Hum Definition
%
Wind Dir Definition
10's deg

Wind Spd Definition
km/h
Visibility Definition
km
Stn Press Definition
kPa
Hmdx Definition


Wind Chill Definition


Weather Definition


TIME
00:00 -0.6 -1.2 96 12 3   100.66   -2 LegendNANA
01:00 -0.3 -1.6 91 8 9   100.58   -3 LegendNANA
02:00 -0.1 -1.8 88 10 8   100.50   -3 LegendNANA
03:00 -0.7 -2.4 88 11 11   100.35   -4 LegendNANA
04:00 -0.2 -2.2 87 7 6   100.16   -2 LegendNANA
05:00 -0.1 -2.7 82 8 16   100.03   -5 LegendNANA
06:00 1.1 -3.2 73 8 12   99.91     LegendNANA
07:00 2.8 -4.2 60 12 12   99.75     LegendNANA
08:00 0.3 -0.2 97 9 7   99.65     LegendNANA
09:00 0.1 -0.3 97 9 10   99.48     LegendNANA
10:00 0.0 -0.2 99 2 18   99.31   -5 LegendNANA
11:00 0.4 0.4 100 12 6   99.22     LegendNANA
12:00 0.4 0.4 100 9 5   99.07     LegendNANA
13:00 1.1 1.0 99 4 4   98.90     LegendNANA
14:00 1.8 1.7 99 13 7   98.78     LegendNANA
15:00 2.2 2.0 98 6 2   98.67     LegendNANA
16:00 1.5 1.3 99 12 4   98.52     LegendNANA
17:00 1.7 1.5 99 5 5   98.42     LegendNANA
18:00 3.9 3.1 94 12 13   98.31     LegendNANA
19:00 3.9 3.1 94 15 22   98.20     LegendNANA
20:00 1.9 1.6 98 7 15   98.16     LegendNANA
21:00 -0.2 -0.3 99 28 12   98.18   -4 LegendNANA
22:00 -0.9 -1.6 95 24 34   98.22   -8 LegendNANA
23:00 -1.9 -2.3 97 25 40   98.38   -10 LegendNANA

Notes on Data Quality.

Legend

  • E = Estimated
  • M = Missing
  • NA = Not Available
  • ‡ = Partner data that is not subject to review by the National Climate Archives
Date modified: